period_start,C,m1,H,J0,J1,J2,J3,J4,J5,JA,JB,JC,JD,JJ,JK,JN,#
2017-05-30 00:03:11,0.01,0.46,0.00,22.90,26.27,29.60,14.52,47.53,1017.59,2034.97,3308.00,2974.96,3394.60,600.12,596.92,46.28,0000 0000 0000 0000 000000
2017-05-30 00:08:12,0.00,0.46,0.00,22.90,26.26,29.58,14.48,47.52,1017.60,2034.97,3308.00,2974.96,3394.29,599.73,596.56,46.33,0000 0000 0000 0000 000000
2017-05-30 00:13:14,-0.00,0.46,0.00,22.97,26.25,29.60,14.52,47.44,1017.66,2034.99,3308.00,2974.96,3394.15,600.03,596.81,46.38,0000 0000 0000 0000 000000
2017-05-30 00:18:15,0.00,0.46,0.00,22.94,26.25,29.66,14.49,47.41,1017.66,2034.99,3307.99,2974.96,3394.13,599.94,596.82,46.43,0000 0000 0000 0000 000000
2017-05-30 00:23:16,0.00,0.46,0.00,22.96,26.25,29.68,14.49,47.51,1017.61,2034.99,3307.99,2974.92,3394.04,599.95,596.72,46.48,0000 0000 0000 0000 000000
2017-05-30 00:28:17,0.00,0.46,0.00,22.96,26.24,29.64,14.46,47.48,1017.60,2034.99,3307.95,2974.88,3394.02,600.15,596.92,46.53,0000 0000 0000 0000 000000
2017-05-30 00:33:19,0.02,0.46,0.00,22.94,26.22,29.61,14.43,47.58,1017.60,2034.99,3307.56,2974.44,3394.00,599.67,596.40,46.58,0000 0000 0000 0000 000000
2017-05-30 00:38:20,0.01,0.46,0.00,23.02,26.22,29.55,14.52,47.55,1017.59,2034.99,3307.07,2974.10,3394.00,599.77,596.34,46.63,0000 0000 0000 0000 000000
2017-05-30 00:43:21,0.00,0.46,0.00,22.99,26.22,29.62,14.51,47.48,1017.59,2034.99,3307.05,2974.11,3393.99,599.63,596.27,46.68,0000 0000 0000 0000 000000
2017-05-30 00:48:23,0.00,0.46,0.00,22.95,26.22,29.64,14.49,47.52,1017.59,2034.99,3307.00,2974.03,3393.96,599.63,596.39,46.73,0000 0000 0000 0000 000000
2017-05-30 00:53:24,0.00,0.46,0.00,22.96,26.22,29.55,14.53,47.54,1017.59,2034.99,3307.00,2974.01,3393.96,600.04,596.72,46.78,0000 0000 0000 0000 000000
2017-05-30 00:58:25,0.00,0.46,0.00,22.95,26.21,29.59,14.51,47.56,1017.59,2034.99,3307.00,2974.00,3393.74,600.00,596.53,46.83,0000 0000 0000 0000 000000
2017-05-30 01:03:26,0.00,0.46,0.00,22.93,26.20,29.52,14.56,47.55,1017.59,2034.99,3306.99,2974.00,3393.34,600.02,596.67,46.88,0000 0000 0000 0000 000000
2017-05-30 01:08:28,0.00,0.46,0.00,22.93,26.20,29.53,14.45,47.52,1017.60,2034.99,3306.96,2974.00,3393.30,599.95,596.70,46.93,0000 0000 0000 0000 000000
2017-05-30 01:13:29,0.00,0.46,0.00,22.95,26.20,29.53,14.57,47.52,1017.65,2034.99,3306.89,2974.00,3393.21,600.47,597.20,46.99,0000 0000 0000 0000 000000
2017-05-30 01:18:31,0.00,0.46,0.00,22.98,26.19,29.57,14.50,47.44,1017.90,2034.99,3306.82,2974.00,3393.10,599.79,596.59,47.04,0000 0000 0000 0000 000000
2017-05-30 01:23:32,0.00,0.46,0.00,23.03,26.19,29.58,14.54,47.48,1018.06,2035.00,3306.83,2974.00,3393.09,599.93,596.63,47.09,0000 0000 0000 0000 000000
2017-05-30 01:28:34,0.01,0.46,0.00,23.03,26.19,29.61,14.55,47.45,1018.04,2035.02,3306.24,2974.00,3393.01,600.27,597.04,47.14,0000 0000 0000 0000 000000
2017-05-30 01:33:35,0.11,0.46,0.00,22.73,26.20,29.56,14.52,46.87,1017.83,2035.03,3304.79,2972.55,3391.57,600.10,597.43,47.19,0000 0000 0000 0000 000000
2017-05-30 01:38:36,0.02,0.47,0.00,22.55,26.22,29.63,14.52,46.99,1017.84,2035.02,3304.02,2971.86,3390.78,599.81,597.36,47.24,0000 0000 0000 0000 000000
2017-05-30 01:43:37,0.04,0.47,0.00,22.40,26.25,29.63,14.61,47.21,1017.77,2035.05,3303.50,2971.09,3390.04,600.14,597.98,47.29,0000 0000 0000 0000 000000
2017-05-30 01:48:39,0.16,0.47,0.00,22.27,26.25,29.58,14.54,47.33,1017.78,2035.15,3301.93,2969.45,3387.88,599.87,598.11,47.34,0000 0000 0000 0000 000000
2017-05-30 01:53:40,0.05,0.48,0.00,22.14,26.21,29.51,14.57,47.29,1017.64,2035.28,3300.87,2967.97,3385.99,599.84,598.25,47.39,0000 0000 0000 0000 000000
2017-05-30 01:58:41,0.04,0.48,0.00,22.03,26.16,29.44,14.50,47.31,1017.87,2035.79,3300.58,2967.98,3385.99,599.86,598.58,47.44,0000 0000 0000 0000 000000
2017-05-30 02:03:42,0.01,0.48,0.00,21.97,26.10,29.35,14.57,47.20,1018.07,2035.96,3300.10,2967.97,3385.97,600.04,599.09,47.49,0000 0000 0000 0000 000000
2017-05-30 02:08:43,0.00,0.48,0.00,21.93,26.04,29.25,14.58,47.18,1018.05,2035.99,3300.04,2967.97,3385.96,599.97,599.01,47.54,0000 0000 0000 0000 000000
2017-05-30 02:13:45,0.01,0.48,0.00,21.90,25.98,29.08,14.65,47.25,1018.06,2035.99,3300.01,2967.80,3385.76,600.32,599.37,47.59,0000 0000 0000 0000 000000
2017-05-30 02:18:46,0.11,0.49,0.00,21.89,25.93,28.99,14.57,47.07,1018.06,2036.20,3299.29,2967.09,3384.96,599.95,598.99,47.64,0000 0000 0000 0000 000000
2017-05-30 02:23:47,1.47,0.52,0.00,21.94,25.92,29.04,14.62,47.79,1018.08,2036.82,3286.39,2951.92,3367.72,600.04,599.00,47.69,0000 0000 0000 0000 000000
2017-05-30 02:28:49,0.41,0.58,0.00,22.01,25.92,29.07,14.62,46.87,1018.08,2036.99,3273.28,2936.72,3350.25,600.29,599.21,47.74,0000 0000 0000 0000 000000
2017-05-30 02:33:50,0.16,0.59,0.00,22.03,25.92,29.12,14.50,46.88,1018.09,2037.03,3269.49,2934.26,3347.02,599.80,598.67,47.79,0000 0000 0000 0000 000000
2017-05-30 02:38:51,0.18,0.60,0.00,22.05,25.92,29.09,14.52,46.89,1018.18,2037.16,3266.09,2932.17,3344.18,599.57,598.44,47.84,0000 0000 0000 0000 000000
2017-05-30 02:43:52,0.17,0.61,0.00,22.10,25.91,29.08,14.51,47.08,1018.48,2037.45,3262.96,2930.13,3341.48,600.05,598.99,47.90,0000 0000 0000 0000 000000
2017-05-30 02:48:54,0.14,0.62,0.00,22.13,25.90,29.00,14.58,47.05,1018.24,2037.69,3260.08,2928.38,3339.19,600.01,598.73,47.95,0000 0000 0000 0000 000000
2017-05-30 02:53:55,0.14,0.62,0.00,22.13,25.88,28.97,14.60,47.08,1018.15,2037.90,3257.40,2926.79,3337.07,600.10,598.81,48.00,0000 0000 0000 0000 000000
2017-05-30 02:58:56,0.11,0.63,0.00,22.14,25.87,28.95,14.58,47.09,1018.29,2037.92,3254.77,2925.19,3334.95,600.38,599.20,48.05,0000 0000 0000 0000 000000
2017-05-30 03:03:58,0.43,0.64,0.00,22.20,25.86,28.96,14.41,46.83,1018.40,2037.62,3248.70,2919.15,3327.92,600.62,599.19,48.10,0000 0000 0000 0000 000000
2017-05-30 03:08:59,0.33,0.67,0.00,22.25,25.86,28.95,13.92,45.73,1018.55,2037.67,3242.38,2912.58,3319.83,599.81,598.49,48.15,0000 0000 0000 0000 000000
2017-05-30 03:14:01,0.45,0.69,0.00,22.26,25.84,28.95,13.90,46.15,1018.57,2037.08,3235.54,2903.95,3310.11,599.56,598.21,48.20,0000 0000 0000 0000 000000
2017-05-30 03:19:02,0.01,0.70,0.00,22.29,25.81,28.92,13.99,46.15,1018.58,2037.00,3234.96,2903.01,3309.03,600.08,598.62,48.25,0000 0000 0000 0000 000000
2017-05-30 03:24:03,0.01,0.70,0.00,22.28,25.79,28.86,13.96,46.13,1018.57,2037.00,3234.51,2903.00,3309.00,599.82,598.43,48.30,0000 0000 0000 0000 000000
2017-05-30 03:29:05,0.00,0.70,0.00,22.21,25.76,28.80,14.01,46.06,1018.56,2037.00,3234.07,2903.00,3309.00,600.01,598.79,48.35,0000 0000 0000 0000 000000
2017-05-30 03:34:06,0.00,0.70,0.00,22.15,25.73,28.84,13.97,46.18,1018.57,2037.00,3234.04,2902.99,3309.00,600.09,599.14,48.40,0000 0000 0000 0000 000000
2017-05-30 03:39:07,0.00,0.70,0.00,22.15,25.71,28.82,13.97,46.02,1018.58,2037.01,3234.01,2902.99,3309.00,599.86,598.78,48.45,0000 0000 0000 0000 000000
2017-05-30 03:44:08,0.00,0.70,0.00,21.92,25.68,28.79,13.97,46.27,1019.03,2037.03,3234.01,2902.99,3309.00,599.86,599.51,48.50,0000 0000 0000 0000 000000
2017-05-30 03:49:10,0.03,0.70,0.00,21.46,25.63,28.84,14.07,46.49,1019.06,2037.27,3234.00,2902.99,3308.99,599.85,600.43,48.55,0000 0000 0000 0000 000000
2017-05-30 03:54:11,0.05,0.70,0.00,21.08,25.57,28.83,14.13,46.28,1018.90,2037.87,3234.00,2903.01,3309.03,600.23,601.43,48.60,0000 0000 0000 0000 000000
2017-05-30 03:59:12,-0.00,0.70,0.00,21.12,25.51,28.70,14.04,46.31,1018.79,2037.99,3234.00,2903.11,3309.21,599.53,600.83,48.65,0000 0000 0000 0000 000000
2017-05-30 04:04:14,-0.01,0.70,0.00,21.24,25.44,28.57,14.17,46.41,1018.72,2038.00,3233.99,2903.37,3309.16,600.13,600.97,48.70,0000 0000 0000 0000 000000
2017-05-30 04:09:15,-0.01,0.70,0.00,21.34,25.37,28.48,14.10,46.22,1018.87,2038.09,3233.99,2903.89,3309.70,600.36,601.09,48.75,0000 0000 0000 0000 000000
2017-05-30 04:14:16,0.07,0.70,0.00,21.42,25.31,28.38,14.10,46.24,1019.00,2038.68,3234.01,2903.98,3309.98,600.15,600.80,48.81,0000 0000 0000 0000 000000
2017-05-30 04:19:17,0.00,0.70,0.00,21.53,25.25,28.32,14.10,46.32,1019.03,2038.98,3234.04,2903.99,3309.99,599.66,600.09,48.86,0000 0000 0000 0000 000000
2017-05-30 04:24:19,-0.00,0.70,0.00,21.62,25.20,28.32,13.96,46.19,1019.05,2038.99,3234.37,2904.00,3310.02,599.75,599.99,48.91,0000 0000 0000 0000 000000
2017-05-30 04:29:20,0.00,0.70,0.00,21.73,25.16,28.20,13.95,46.13,1019.06,2039.01,3234.22,2904.03,3310.05,600.03,600.07,48.96,0000 0000 0000 0000 000000
2017-05-30 04:34:21,-0.00,0.70,0.00,21.81,25.12,28.16,14.02,46.14,1019.06,2039.08,3234.53,2904.06,3310.13,600.22,600.14,49.01,0000 0000 0000 0000 000000
2017-05-30 04:39:22,0.02,0.70,0.00,21.88,25.09,28.15,14.02,46.22,1019.06,2039.32,3234.72,2904.15,3310.27,600.36,600.13,49.06,0000 0000 0000 0000 000000
2017-05-30 04:44:24,0.04,0.71,0.00,21.96,25.07,28.03,13.96,46.18,1019.06,2039.70,3234.37,2904.13,3310.29,599.91,599.49,49.11,0000 0000 0000 0000 000000
2017-05-30 04:49:25,0.02,0.71,0.00,22.06,25.05,28.01,13.97,46.22,1019.06,2039.93,3234.13,2904.06,3310.14,599.83,599.23,49.16,0000 0000 0000 0000 000000
2017-05-30 04:54:27,0.00,0.71,0.00,22.14,25.05,27.97,13.93,46.03,1019.06,2039.96,3234.07,2904.04,3310.07,599.81,599.06,49.21,0000 0000 0000 0000 000000
2017-05-30 04:59:28,0.00,0.71,0.00,22.21,25.04,27.97,13.94,46.26,1019.06,2039.98,3234.00,2904.01,3310.02,599.84,599.03,49.26,0000 0000 0000 0000 000000
2017-05-30 05:04:29,0.00,0.71,0.00,22.26,25.04,27.97,13.98,46.02,1019.06,2039.98,3233.98,2904.00,3310.00,600.20,599.19,49.31,0000 0000 0000 0000 000000
2017-05-30 05:09:31,0.01,0.71,0.00,22.32,25.04,27.99,14.01,46.13,1019.08,2039.98,3233.46,2904.00,3309.98,600.24,598.92,49.36,0000 0000 0000 0000 000000
2017-05-30 05:14:32,0.00,0.71,0.00,22.35,25.05,28.01,13.90,45.94,1019.08,2039.99,3233.09,2903.95,3309.83,599.77,598.69,49.41,0000 0000 0000 0000 000000
2017-05-30 05:19:33,0.02,0.71,0.00,22.41,25.06,28.03,13.94,45.93,1019.10,2039.99,3233.00,2903.55,3309.19,599.95,598.64,49.46,0000 0000 0000 0000 000000
2017-05-30 05:24:35,0.01,0.71,0.00,22.42,25.07,28.08,13.90,45.98,1019.22,2039.99,3232.97,2903.06,3309.01,599.97,598.70,49.51,0000 0000 0000 0000 000000
2017-05-30 05:29:36,0.01,0.71,0.00,22.41,25.09,28.09,13.98,45.91,1019.27,2039.99,3232.52,2903.01,3309.00,599.96,598.80,49.56,0000 0000 0000 0000 000000
2017-05-30 05:34:37,0.01,0.71,0.00,22.44,25.10,28.13,13.91,46.01,1019.32,2039.97,3232.04,2902.97,3308.66,600.09,598.91,49.61,0000 0000 0000 0000 000000
2017-05-30 05:39:39,0.02,0.71,0.00,22.44,25.12,28.17,13.86,45.91,1019.44,2039.96,3231.95,2902.61,3308.06,599.46,598.26,49.66,0000 0000 0000 0000 000000
2017-05-30 05:44:40,0.02,0.72,0.00,22.41,25.14,28.20,13.87,45.88,1019.41,2039.94,3231.35,2902.06,3308.00,599.83,598.63,49.71,0000 0000 0000 0000 000000
2017-05-30 05:49:41,-0.01,0.72,0.00,22.40,25.15,28.24,13.91,45.92,1019.49,2039.80,3231.01,2902.00,3307.89,599.96,598.88,49.76,0000 0000 0000 0000 000000
2017-05-30 05:54:42,-0.01,0.71,0.00,22.39,25.17,28.30,13.96,45.92,1019.54,2039.65,3230.96,2901.98,3307.21,600.09,599.03,49.82,0000 0000 0000 0000 000000
2017-05-30 05:59:43,-0.02,0.71,0.00,22.38,25.19,28.33,13.97,46.03,1019.55,2039.28,3230.28,2901.69,3307.00,599.97,598.96,49.87,0000 0000 0000 0000 000000
2017-05-30 06:04:45,0.00,0.71,0.00,22.38,25.20,28.38,13.97,45.98,1019.55,2039.09,3230.03,2901.14,3306.99,600.02,599.04,49.92,0000 0000 0000 0000 000000
2017-05-30 06:09:46,-0.00,0.71,0.00,22.39,25.21,28.38,13.98,45.97,1019.55,2039.06,3229.99,2901.02,3306.89,599.61,598.70,49.97,0000 0000 0000 0000 000000
2017-05-30 06:14:47,0.01,0.71,0.00,22.39,25.22,28.44,14.02,45.90,1019.57,2039.05,3229.85,2901.00,3306.43,600.20,599.16,50.02,0000 0000 0000 0000 000000
2017-05-30 06:19:49,0.01,0.72,0.00,22.40,25.23,28.42,13.94,45.97,1019.56,2039.01,3229.15,2900.97,3306.01,600.07,599.04,50.07,0000 0000 0000 0000 000000
2017-05-30 06:24:50,0.00,0.72,0.00,22.37,25.25,28.53,13.99,45.98,1019.56,2039.01,3229.00,2900.88,3306.00,599.99,599.05,50.12,0000 0000 0000 0000 000000
2017-05-30 06:29:51,0.02,0.72,0.00,22.38,25.25,28.62,13.97,45.88,1019.56,2039.00,3228.98,2900.36,3305.96,599.90,598.98,50.17,0000 0000 0000 0000 000000
2017-05-30 06:34:53,0.02,0.72,0.00,22.39,25.26,28.63,14.00,45.98,1019.57,2039.00,3228.58,2900.03,3305.37,600.06,599.02,50.22,0000 0000 0000 0000 000000
2017-05-30 06:39:54,0.01,0.72,0.00,22.40,25.27,28.60,14.03,45.99,1019.56,2039.00,3228.03,2900.00,3305.01,600.22,599.19,50.27,0000 0000 0000 0000 000000
2017-05-30 06:44:55,0.00,0.72,0.00,22.43,25.27,28.59,13.96,45.93,1019.57,2039.00,3227.97,2899.96,3304.99,599.88,598.72,50.32,0000 0000 0000 0000 000000
2017-05-30 06:49:56,0.04,0.72,0.00,22.47,25.30,28.56,13.97,46.01,1019.67,2038.99,3227.32,2899.33,3304.59,599.82,598.78,50.37,0000 0000 0000 0000 000000
2017-05-30 06:54:57,0.00,0.72,0.00,22.51,25.30,28.49,13.96,45.95,1019.74,2038.99,3227.01,2899.04,3304.04,599.87,598.66,50.42,0000 0000 0000 0000 000000
2017-05-30 06:59:58,0.00,0.72,0.00,22.56,25.32,28.53,13.97,45.92,1019.87,2038.98,3226.91,2899.00,3304.00,599.94,598.83,50.47,0000 0000 0000 0000 000000
2017-05-30 07:05:00,0.01,0.72,0.00,22.57,25.33,28.59,13.91,45.95,1019.91,2038.96,3226.29,2898.95,3303.93,599.85,598.70,50.52,0000 0000 0000 0000 000000
2017-05-30 07:10:01,0.03,0.72,0.00,22.58,25.35,28.58,13.96,45.92,1020.01,2038.95,3226.01,2898.46,3303.21,600.47,599.25,50.57,0000 0000 0000 0000 000000
2017-05-30 07:15:02,-0.00,0.72,0.00,22.64,25.36,28.56,14.00,45.92,1020.03,2038.87,3225.91,2898.03,3303.00,600.24,599.03,50.62,0000 0000 0000 0000 000000
2017-05-30 07:20:04,0.01,0.72,0.00,22.64,25.37,28.61,13.99,45.86,1020.03,2038.76,3225.23,2898.00,3302.96,599.94,598.73,50.68,0000 0000 0000 0000 000000
2017-05-30 07:25:05,-0.01,0.72,0.00,22.67,25.40,28.63,13.96,46.06,1020.03,2038.57,3225.00,2897.95,3302.40,599.70,598.55,50.73,0000 0000 0000 0000 000000
2017-05-30 07:30:06,0.02,0.72,0.00,22.67,25.41,28.57,13.90,45.99,1020.04,2038.49,3224.85,2897.49,3302.03,599.85,598.55,50.78,0000 0000 0000 0000 000000
2017-05-30 07:35:07,0.01,0.73,0.00,22.70,25.42,28.56,14.01,45.95,1020.04,2038.36,3224.16,2897.03,3301.98,600.08,598.61,50.83,0000 0000 0000 0000 000000
2017-05-30 07:40:08,-0.00,0.73,0.00,22.72,25.44,28.56,13.97,45.90,1020.04,2038.16,3223.99,2897.00,3301.52,600.06,598.63,50.88,0000 0000 0000 0000 000000
2017-05-30 07:45:09,0.00,0.73,0.00,22.74,25.45,28.59,13.88,45.77,1020.05,2038.04,3223.65,2896.94,3301.02,599.74,598.37,50.93,0000 0000 0000 0000 000000
2017-05-30 07:50:11,0.02,0.73,0.00,22.73,25.47,28.62,13.97,45.89,1020.07,2038.03,3223.04,2896.29,3300.97,600.08,598.63,50.98,0000 0000 0000 0000 000000
2017-05-30 07:55:12,0.01,0.73,0.00,22.71,25.47,28.62,14.01,45.94,1020.05,2038.02,3222.97,2896.02,3300.46,600.17,598.79,51.03,0000 0000 0000 0000 000000
2017-05-30 08:00:13,0.01,0.73,0.00,22.66,25.50,28.70,13.98,45.83,1020.08,2038.00,3222.39,2895.99,3300.02,599.96,598.76,51.08,0000 0000 0000 0000 000000
2017-05-30 08:05:15,0.01,0.73,0.00,22.68,25.50,28.73,14.01,46.11,1020.26,2038.00,3222.00,2895.74,3299.97,600.30,599.20,51.13,0000 0000 0000 0000 000000
2017-05-30 08:10:16,0.03,0.73,0.00,22.67,25.51,28.72,13.84,45.79,1020.46,2038.00,3221.74,2895.14,3299.43,599.92,598.99,51.18,0000 0000 0000 0000 000000
2017-05-30 08:15:17,0.01,0.73,0.00,22.66,25.52,28.71,14.06,45.93,1020.52,2038.00,3221.06,2895.00,3299.02,600.45,599.58,51.23,0000 0000 0000 0000 000000
2017-05-30 08:20:19,0.00,0.73,0.00,22.62,25.52,28.67,14.04,45.96,1020.52,2038.00,3220.99,2894.98,3298.96,599.99,599.08,51.28,0000 0000 0000 0000 000000
2017-05-30 08:25:20,0.04,0.73,0.00,22.55,25.52,28.60,14.11,46.02,1020.52,2037.99,3220.41,2894.60,3298.47,600.34,599.42,51.33,0000 0000 0000 0000 000000
2017-05-30 08:30:21,0.01,0.74,0.00,22.59,25.54,28.65,14.04,45.94,1020.52,2037.98,3220.00,2894.02,3298.01,600.31,599.44,51.38,0000 0000 0000 0000 000000
2017-05-30 08:35:23,0.01,0.74,0.00,22.65,25.55,28.75,13.96,45.91,1020.52,2037.98,3219.65,2894.00,3297.85,599.96,598.88,51.43,0000 0000 0000 0000 000000
2017-05-30 08:40:24,0.02,0.74,0.00,22.75,25.56,28.65,13.94,45.95,1020.52,2037.95,3219.04,2893.77,3297.17,599.94,598.76,51.48,0000 0000 0000 0000 000000
2017-05-30 08:45:25,0.01,0.74,0.00,22.77,25.57,28.61,13.98,45.91,1020.52,2037.94,3218.98,2893.17,3297.00,600.12,598.97,51.53,0000 0000 0000 0000 000000
2017-05-30 08:50:27,-0.00,0.74,0.00,22.76,25.59,28.62,13.96,45.87,1020.52,2037.74,3218.21,2893.00,3296.70,600.11,598.80,51.58,0000 0000 0000 0000 000000
2017-05-30 08:55:28,-0.01,0.74,0.00,22.74,25.60,28.64,13.94,45.78,1020.52,2037.38,3217.98,2892.82,3296.04,600.10,598.95,51.64,0000 0000 0000 0000 000000
2017-05-30 09:00:29,0.02,0.74,0.00,22.73,25.62,28.66,13.91,45.84,1020.52,2037.15,3217.29,2892.11,3295.92,599.65,598.46,51.69,0000 0000 0000 0000 000000
2017-05-30 09:05:31,0.01,0.74,0.00,22.74,25.65,28.68,13.89,45.94,1020.52,2037.09,3216.99,2892.00,3295.26,599.83,598.66,51.74,0000 0000 0000 0000 000000
2017-05-30 09:10:32,0.02,0.74,0.00,22.76,25.65,28.70,14.01,46.00,1020.53,2037.05,3216.30,2891.88,3295.00,600.01,598.87,51.79,0000 0000 0000 0000 000000
2017-05-30 09:15:33,0.03,0.74,0.00,22.77,25.66,28.72,13.91,45.74,1020.53,2037.02,3216.00,2891.22,3294.55,599.87,598.55,51.84,0000 0000 0000 0000 000000
2017-05-30 09:20:34,0.01,0.74,0.00,22.74,25.67,28.66,13.96,45.73,1020.52,2037.01,3215.58,2891.00,3294.01,599.84,598.68,51.89,0000 0000 0000 0000 000000
2017-05-30 09:25:35,0.01,0.74,0.00,22.82,25.69,28.66,13.97,45.77,1020.54,2037.00,3215.03,2890.94,3293.91,599.97,598.63,51.94,0000 0000 0000 0000 000000
2017-05-30 09:30:36,0.04,0.74,0.00,22.83,25.70,28.69,13.91,45.80,1020.63,2037.00,3214.80,2890.21,3293.13,599.99,598.88,51.99,0000 0000 0000 0000 000000
2017-05-30 09:35:37,0.01,0.75,0.00,22.84,25.72,28.74,13.97,45.76,1020.64,2037.00,3214.08,2890.00,3292.99,599.82,598.46,52.04,0000 0000 0000 0000 000000
2017-05-30 09:40:39,0.01,0.75,0.00,22.84,25.74,28.84,14.02,45.89,1020.85,2037.00,3213.96,2889.94,3292.48,600.25,599.08,52.09,0000 0000 0000 0000 000000
2017-05-30 09:45:40,0.03,0.75,0.00,22.83,25.75,28.89,13.97,45.79,1020.82,2036.97,3213.22,2889.28,3292.01,599.95,598.79,52.14,0000 0000 0000 0000 000000
2017-05-30 09:50:41,0.01,0.75,0.00,22.83,25.77,28.90,13.97,45.83,1020.64,2036.95,3212.88,2889.00,3291.66,599.99,598.79,52.19,0000 0000 0000 0000 000000
2017-05-30 09:55:43,0.02,0.75,0.00,22.80,25.77,28.90,13.88,45.88,1020.56,2036.94,3212.19,2888.97,3291.04,599.86,598.86,52.24,0000 0000 0000 0000 000000
2017-05-30 10:00:44,0.01,0.75,0.00,22.80,25.77,28.90,13.90,45.82,1020.67,2036.89,3212.00,2888.44,3290.99,599.68,598.56,52.29,0000 0000 0000 0000 000000
2017-05-30 10:05:45,0.02,0.75,0.00,22.75,25.79,28.88,13.97,45.81,1020.58,2036.88,3211.57,2888.02,3290.67,599.99,598.83,52.34,0000 0000 0000 0000 000000
2017-05-30 10:10:47,-0.02,0.75,0.00,22.75,25.80,28.88,14.04,45.82,1020.56,2036.64,3211.03,2887.99,3290.03,600.01,598.75,52.39,0000 0000 0000 0000 000000
2017-05-30 10:15:48,0.02,0.75,0.00,22.73,25.79,28.87,13.95,45.89,1020.54,2036.65,3210.79,2887.82,3289.99,600.01,598.89,52.44,0000 0000 0000 0000 000000
2017-05-30 10:20:50,0.05,0.75,0.00,22.69,25.79,28.87,14.03,45.87,1020.53,2036.74,3210.10,2887.14,3289.49,600.05,599.02,52.49,0000 0000 0000 0000 000000
2017-05-30 10:25:51,0.00,0.76,0.00,22.63,25.79,28.82,14.00,45.90,1020.53,2036.77,3209.99,2887.01,3289.04,599.86,598.97,52.55,0000 0000 0000 0000 000000
2017-05-30 10:30:53,-0.00,0.76,0.00,22.67,25.78,28.84,13.94,45.80,1020.56,2036.57,3209.35,2886.99,3288.98,600.39,599.41,52.60,0000 0000 0000 0000 000000
2017-05-30 10:35:54,0.02,0.76,0.00,22.66,25.77,28.86,13.97,45.83,1020.68,2036.74,3209.00,2886.91,3288.71,600.23,599.30,52.65,0000 0000 0000 0000 000000
2017-05-30 10:40:56,0.04,0.76,0.00,22.64,25.77,28.87,14.02,46.02,1020.65,2036.87,3208.91,2886.41,3288.13,600.33,599.39,52.70,0000 0000 0000 0000 000000
2017-05-30 10:45:56,0.02,0.76,0.00,22.62,25.76,28.87,14.02,46.01,1020.85,2036.85,3208.12,2886.04,3288.00,600.06,599.32,52.75,0000 0000 0000 0000 000000
2017-05-30 10:50:57,0.00,0.76,0.00,22.60,25.74,28.86,13.98,46.13,1020.98,2036.93,3207.99,2886.00,3287.98,599.82,599.31,52.80,0000 0000 0000 0000 000000
2017-05-30 10:55:59,0.02,0.76,0.00,22.57,25.72,28.82,14.05,46.02,1020.95,2036.89,3207.32,2885.98,3287.49,599.92,599.41,52.85,0000 0000 0000 0000 000000
2017-05-30 11:01:00,0.01,0.76,0.00,22.65,25.72,28.76,13.98,45.89,1020.98,2036.92,3207.02,2885.91,3287.04,600.13,599.50,52.90,0000 0000 0000 0000 000000
2017-05-30 11:06:02,0.02,0.76,0.00,22.67,25.72,28.81,14.02,45.89,1021.00,2036.95,3206.99,2885.49,3287.00,600.15,599.44,52.95,0000 0000 0000 0000 000000
2017-05-30 11:11:03,0.01,0.76,0.00,22.65,25.70,28.73,13.95,45.85,1021.00,2036.97,3206.67,2885.08,3286.98,599.93,599.27,53.00,0000 0000 0000 0000 000000
2017-05-30 11:16:04,0.02,0.76,0.00,22.61,25.70,28.73,13.98,45.97,1020.97,2036.99,3206.03,2885.00,3286.46,599.96,599.22,53.05,0000 0000 0000 0000 000000
2017-05-30 11:21:05,0.00,0.77,0.00,22.58,25.68,28.66,13.86,45.98,1021.01,2036.97,3205.99,2884.99,3286.04,599.81,599.21,53.10,0000 0000 0000 0000 000000
2017-05-30 11:26:06,0.01,0.77,0.00,22.60,25.67,28.67,14.03,46.01,1020.88,2036.98,3205.43,2884.97,3286.00,600.06,599.40,53.15,0000 0000 0000 0000 000000
2017-05-30 11:31:07,0.01,0.77,0.00,22.66,25.66,28.62,14.01,45.92,1020.56,2036.99,3205.02,2884.82,3285.97,599.91,599.01,53.20,0000 0000 0000 0000 000000
2017-05-30 11:36:08,0.03,0.77,0.00,22.68,25.65,28.68,13.91,45.97,1020.61,2036.98,3204.95,2884.26,3285.57,600.02,599.08,53.25,0000 0000 0000 0000 000000
2017-05-30 11:41:10,0.01,0.77,0.00,22.70,25.63,28.72,13.99,46.06,1020.72,2036.99,3204.44,2884.04,3285.06,600.13,599.11,53.30,0000 0000 0000 0000 000000
2017-05-30 11:46:11,0.00,0.77,0.00,22.71,25.62,28.72,13.92,45.95,1020.91,2036.99,3204.05,2884.00,3285.00,599.73,598.77,53.35,0000 0000 0000 0000 000000
2017-05-30 11:51:12,0.00,0.77,0.00,22.72,25.61,28.69,14.02,45.97,1020.97,2036.99,3203.99,2883.99,3285.00,600.13,599.26,53.41,0000 0000 0000 0000 000000
2017-05-30 11:56:13,0.01,0.77,0.00,22.73,25.60,28.66,13.89,45.92,1020.93,2036.99,3203.46,2883.96,3284.87,599.79,598.90,53.46,0000 0000 0000 0000 000000
2017-05-30 12:01:15,0.02,0.77,0.00,22.59,25.59,28.62,13.98,45.98,1020.97,2036.99,3203.01,2883.81,3284.34,600.27,599.70,53.51,0000 0000 0000 0000 000000
2017-05-30 12:06:16,0.02,0.77,0.00,22.55,25.57,28.65,13.91,45.96,1021.00,2037.00,3203.00,2883.26,3284.02,599.81,599.34,53.56,0000 0000 0000 0000 000000
2017-05-30 12:11:17,0.01,0.77,0.00,22.55,25.57,28.66,13.97,45.86,1020.95,2037.01,3202.68,2883.02,3284.00,599.94,599.52,53.61,0000 0000 0000 0000 000000
2017-05-30 12:16:18,0.01,0.77,0.00,22.51,25.55,28.70,13.92,45.88,1020.94,2037.03,3202.08,2883.00,3283.96,599.82,599.42,53.66,0000 0000 0000 0000 000000
2017-05-30 12:21:19,0.00,0.77,0.00,22.53,25.55,28.66,13.96,45.89,1020.96,2037.03,3201.99,2883.00,3283.71,599.87,599.44,53.71,0000 0000 0000 0000 000000
2017-05-30 12:26:21,0.02,0.77,0.00,22.53,25.55,28.67,13.99,45.80,1020.72,2037.03,3201.59,2882.94,3283.08,600.15,599.59,53.76,0000 0000 0000 0000 000000
2017-05-30 12:31:22,0.02,0.78,0.00,22.48,25.54,28.68,13.99,45.78,1020.70,2037.02,3201.01,2882.45,3282.99,600.17,599.75,53.81,0000 0000 0000 0000 000000
2017-05-30 12:36:23,0.02,0.78,0.00,22.54,25.52,28.69,13.99,45.90,1020.75,2037.04,3200.79,2882.04,3282.52,599.96,599.39,53.86,0000 0000 0000 0000 000000
2017-05-30 12:41:25,0.02,0.78,0.00,22.54,25.52,28.63,13.98,45.83,1020.59,2037.11,3200.16,2882.00,3282.08,600.20,599.45,53.91,0000 0000 0000 0000 000000
2017-05-30 12:46:26,-0.00,0.78,0.00,22.53,25.52,28.61,13.96,45.88,1020.52,2037.11,3199.98,2881.98,3282.00,599.94,599.15,53.96,0000 0000 0000 0000 000000
2017-05-30 12:51:27,0.03,0.78,0.00,22.52,25.51,28.62,14.05,45.90,1020.53,2037.12,3199.38,2881.72,3281.84,600.04,599.50,54.01,0000 0000 0000 0000 000000
2017-05-30 12:56:29,0.03,0.78,0.00,22.50,25.50,28.59,13.97,45.92,1020.52,2037.17,3199.01,2881.09,3281.09,599.90,599.22,54.06,0000 0000 0000 0000 000000